User: anonymous   Login
Location: Linz
(48.3300°N, 14.3000°E)
Time: 19:46:25
(UTC+01:00)
Language:

YUBILEINY - Orbit

View from above orbital plane
View from above orbital plane
View from above satellite
View from above satellite

Ground track
Ground track

The orbit data is extracted from the following two-line orbital elements,

1 32953U 08025A   18316.45222543  .00000020  00000-0  75656-4 0  9998
2 32953  82.5005 280.4627 0017889 246.0808 113.8401 12.43086533475193
Epoch (UTC): 12 November 2018 10:51:12
Eccentricity: 0.0017889
inclination: 82.5005°
perigee height: 1479 km
apogee height: 1507 km
right ascension of ascending node: 280.4627°
argument of perigee: 246.0808°
revolutions per day: 12.43086533
mean anomaly at epoch: 113.8401°
orbit number at epoch: 47519

The dashed part of the orbit path shows where the satellite is in the earth's shadow,  

DLR